Retour au catalogue

STARLINK-35533

ActifCommunicationsVLEO
NORAD 66429·PAYLOAD·🇺🇸 United States

Lancé Nov 11, 2025 depuis Cape Canaveral Space Force Station

Loading…

Prochains Passages (prochaines 24 heures)

TLE

FraisSource: CelesTrak SupGP

Époque: Sep 15, 2026, 02:27 UTC

1 66429C 25259H   26258.10256944  .00013983  00000+0  50644-3 0  2587
2 66429  43.0012 284.5083 0001203 261.4403   7.4922 15.27574378    19

Suivez STARLINK-35533 en temps réel avec AllMySat

Download on the App Store